EW4271 Weather Reports


Display with metric or nautical units.
time (UTC)temp
F
wind
direction
speed
MPH
gust
MPH
rain 1hr
in
rain 24hr
in
rain mn
in
humidity
%
barometer
mb
20240223082028 26 42 0.0 0.0 0.00 0.00 0.00 68 1024.4
20240223081523 26 42 0.0 0.0 0.00 0.00 0.00 69 1024.3
20240223081019 27 42 0.0 0.0 0.00 0.00 0.00 69 1024.4
20240223080518 27 42 0.0 0.0 0.00 0.00 0.00 68 1024.4
20240223080014 27 42 0.0 0.0 0.00 0.00 0.00 67 1024.3
20240223075530 27 42 0.0 0.0 0.00 0.00 0.00 67 1024.3
20240223075025 27 42 0.0 0.0 0.00 0.00 0.00 67 1024.3
20240223074520 27 42 0.0 0.0 0.00 0.00 0.00 67 1024.3
20240223074014 27 42 0.0 0.0 0.00 0.00 0.00 66 1024.3
20240223073530 27 42 0.0 0.0 0.00 0.00 0.00 64 1024.3
20240223073025 28 42 0.0 0.0 0.00 0.00 0.00 65 1024.1
20240223072524 28 42 0.0 0.0 0.00 0.00 0.00 64 1024.1
20240223072018 28 42 0.0 0.0 0.00 0.00 0.00 64 1024.0
20240223071514 28 42 0.0 0.0 0.00 0.00 0.00 62 1024.0
20240223071029 29 42 0.0 0.0 0.00 0.00 0.00 63 1024.0
20240223070524 29 42 0.0 0.0 0.00 0.00 0.00 62 1023.9
20240223070019 29 42 0.0 0.0 0.00 0.00 0.00 61 1024.0
20240223065535 29 42 0.0 0.0 0.00 0.00 0.00 60 1023.9
20240223065013 30 42 0.0 0.0 0.00 0.00 0.00 59 1023.9
20240223064529 30 42 0.0 0.0 0.00 0.00 0.00 57 1023.9
20240223064024 30 42 0.0 0.0 0.00 0.00 0.00 56 1024.0
20240223063519 31 42 0.0 0.0 0.00 0.00 0.00 58 1023.9
20240223063015 31 42 0.0 0.0 0.00 0.00 0.00 55 1024.0
20240223062530 32 42 0.0 0.0 0.00 0.00 0.00 54 1023.9
20240223062026 32 42 0.0 0.0 0.00 0.00 0.00 56 1023.9
20240223061542 33 42 0.0 0.0 0.00 0.00 0.00 49 1023.9
20240223061019 33 42 0.0 0.0 0.00 0.00 0.00 51 1023.9
20240223060514 34 53 0.0 0.0 0.00 0.00 0.00 49 1023.8
20240223060029 34 53 0.0 0.0 0.00 0.00 0.00 48 1023.7
20240223055525 34 53 0.0 0.0 0.00 0.00 0.00 48 1023.8
20240223055020 34 53 0.0 0.0 0.00 0.00 0.00 48 1023.7
20240223054513 35 53 0.0 0.0 0.00 0.00 0.00 48 1023.6
20240223054029 36 26 0.0 0.0 0.00 0.00 0.00 48 1023.4
20240223053525 37 246 0.0 0.0 0.00 0.00 0.00 45 1023.4
20240223053024 37 246 0.0 3.0 0.00 0.00 0.00 44 1023.4
20240223052519 37 252 0.0 4.0 0.00 0.00 0.00 42 1023.4
20240223052035 37 297 1.0 4.0 0.00 0.00 0.00 41 1023.4
20240223051549 38 40 0.0 1.0 0.00 0.00 0.00 42 1023.4
20240223051023 38 45 0.0 1.0 0.00 0.00 0.00 41 1023.4
20240223050519 38 45 0.0 0.0 0.00 0.00 0.00 41 1023.4
20240223050033 39 45 0.0 2.0 0.00 0.00 0.00 40 1023.3
20240223045528 39 45 0.0 3.0 0.00 0.00 0.00 39 1023.4
20240223045024 38 279 0.0 3.0 0.00 0.00 0.00 40 1023.4
20240223044523 38 295 0.0 5.0 0.00 0.00 0.00 41 1023.4
20240223044019 38 14 1.0 5.0 0.00 0.00 0.00 42 1023.4
20240223043533 38 257 0.0 3.0 0.00 0.00 0.00 43 1023.4
20240223043029 38 254 0.0 3.0 0.00 0.00 0.00 42 1023.4
20240223042544 37 271 0.0 2.0 0.00 0.00 0.00 43 1023.4
20240223042018 37 271 0.0 2.0 0.00 0.00 0.00 43 1023.4
20240223041530 36 355 0.0 2.0 0.00 0.00 0.00 44 1023.4
20240223041023 35 308 0.0 3.0 0.00 0.00 0.00 47 1023.4
20240223040519 33 125 0.0 1.0 0.00 0.00 0.00 52 1023.4
20240223040039 32 257 0.0 0.0 0.00 0.00 0.00 53 1023.3
20240223035533 32 276 0.0 0.0 0.00 0.00 0.00 55 1023.4
20240223035028 32 276 0.0 0.0 0.00 0.00 0.00 54 1023.3
20240223034524 32 299 0.0 0.0 0.00 0.00 0.00 53 1023.2
20240223034019 32 299 0.0 0.0 0.00 0.00 0.00 50 1023.2
20240223033514 32 299 0.0 0.0 0.00 0.00 0.00 50 1023.2
20240223033030 32 312 0.0 0.0 0.00 0.00 0.00 52 1023.2
20240223032525 32 312 0.0 0.0 0.00 0.00 0.00 53 1023.2
20240223032024 33 288 0.0 0.0 0.00 0.00 0.00 51 1023.2
20240223031519 33 297 0.0 0.0 0.00 0.00 0.00 49 1023.2
20240223031014 33 296 0.0 0.0 0.00 0.00 0.00 49 1023.2
20240223030528 34 296 0.0 0.0 0.00 0.00 0.00 47 1023.2
20240223030024 34 291 0.0 1.0 0.00 0.00 0.00 46 1023.2
20240223025517 34 294 0.0 0.0 0.00 0.00 0.00 47 1023.2
20240223025028 35 294 0.0 0.0 0.00 0.00 0.00 46 1023.2
20240223024524 35 288 0.0 0.0 0.00 0.00 0.00 46 1023.1
20240223024041 35 279 0.0 0.0 0.00 0.00 0.00 45 1023.1
20240223023518 36 279 0.0 0.0 0.00 0.00 0.00 43 1023.0
20240223023014 36 279 0.0 0.0 0.00 0.00 0.00 41 1023.0
20240223022528 37 279 0.0 0.0 0.00 0.00 0.00 40 1022.9
20240223022023 38 273 0.0 0.0 0.00 0.00 0.00 40 1022.8
20240223021539 39 284 0.0 2.0 0.00 0.00 0.00 36 1022.8
20240223021031 40 238 0.0 2.0 0.00 0.00 0.00 35 1022.7
20240223020528 40 299 0.0 0.0 0.00 0.00 0.00 33 1022.7
20240223020023 41 299 0.0 2.0 0.00 0.00 0.00 32 1022.7
20240223015523 41 302 0.0 3.0 0.00 0.00 0.00 32 1022.5
20240223015018 41 348 0.0 3.0 0.00 0.00 0.00 33 1022.3
20240223014532 41 37 0.0 3.0 0.00 0.00 0.00 31 1022.2
20240223014026 40 306 1.0 3.0 0.00 0.00 0.00 32 1022.2
20240223013521 41 360 0.0 2.0 0.00 0.00 0.00 33 1022.2
20240223013017 41 9 0.0 2.0 0.00 0.00 0.00 30 1022.1
20240223012532 42 306 0.0 4.0 0.00 0.00 0.00 29 1022.0
20240223012048 42 50 1.0 4.0 0.00 0.00 0.00 27 1021.9
20240223011526 42 48 0.0 1.0 0.00 0.00 0.00 31 1021.9
20240223011021 42 48 0.0 0.0 0.00 0.00 0.00 32 1021.8
20240223010516 43 48 0.0 1.0 0.00 0.00 0.00 30 1021.7
20240223010032 43 48 0.0 1.0 0.00 0.00 0.00 30 1021.6
20240223005526 43 17 0.0 1.0 0.00 0.00 0.00 30 1021.5
20240223005022 43 24 0.0 0.0 0.00 0.00 0.00 30 1021.4
20240223004518 44 24 0.0 3.0 0.00 0.00 0.00 30 1021.4
20240223004032 44 24 0.0 3.0 0.00 0.00 0.00 30 1021.3
20240223003532 44 51 1.0 3.0 0.00 0.00 0.00 29 1021.3
20240223003027 44 54 0.0 0.0 0.00 0.00 0.00 27 1021.2
20240223002521 45 54 0.0 1.0 0.00 0.00 0.00 28 1021.1
20240223002037 45 54 0.0 1.0 0.00 0.00 0.00 28 1021.1
20240223001531 46 41 0.0 2.0 0.00 0.00 0.00 26 1021.1
20240223001027 46 41 0.0 2.0 0.00 0.00 0.00 25 1021.1
20240223000522 46 35 0.0 2.0 0.00 0.00 0.00 25 1021.1
20240223000017 46 15 0.0 3.0 0.00 0.00 0.00 24 1021.1
20240222235517 47 290 1.0 3.0 0.00 0.00 0.00 25 1020.9
20240222235031 47 32 1.0 3.0 0.00 0.00 0.00 23 1020.9
20240222234545 47 218 0.0 3.0 0.00 0.00 0.00 24 1020.8
20240222234018 47 28 1.0 4.0 0.00 0.00 0.00 22 1020.8
20240222233534 48 266 0.0 4.0 0.00 0.00 0.00 21 1020.7
20240222233028 48 44 0.0 3.0 0.00 0.00 0.00 20 1020.7
20240222232523 48 346 0.0 8.0 0.00 0.00 0.00 20 1020.8
20240222232019 48 10 1.0 8.0 0.00 0.00 0.00 21 1020.7
20240222231519 48 321 0.0 2.0 0.00 0.00 0.00 25 1020.7
20240222231014 48 271 0.0 3.0 0.00 0.00 0.00 25 1020.5
20240222230550 48 28 1.0 5.0 0.00 0.00 0.00 23 1020.6
20240222230043 48 59 1.0 5.0 0.00 0.00 0.00 24 1020.5
20240222225516 49 355 0.0 7.0 0.00 0.00 0.00 24 1020.4
20240222225030 49 49 1.0 3.0 0.00 0.00 0.00 24 1020.4
20240222224547 49 315 1.0 6.0 0.00 0.00 0.00 24 1020.6
20240222224022 49 284 0.0 6.0 0.00 0.00 0.00 24 1020.4
20240222223517 49 350 0.0 2.0 0.00 0.00 0.00 25 1020.5
20240222223014 49 51 1.0 4.0 0.00 0.00 0.00 26 1020.4
20240222222549 49 40 1.0 4.0 0.00 0.00 0.00 26 1020.4
20240222222026 49 47 1.0 16.0 0.00 0.00 0.00 27 1020.4
20240222221521 50 21 5.0 16.0 0.00 0.00 0.00 33 1020.3
20240222221016 50 176 3.0 8.0 0.00 0.00 0.00 27 1020.3
20240222220531 50 263 1.0 9.0 0.00 0.00 0.00 28 1020.4
20240222220025 51 27 1.0 9.0 0.00 0.00 0.00 31 1020.5
20240222215540 52 148 1.0 4.0 0.00 0.00 0.00 30 1020.4
20240222215014 52 196 2.0 3.0 0.00 0.00 0.00 31 1020.6
20240222214514 53 309 0.0 4.0 0.00 0.00 0.00 32 1020.4
20240222214030 52 169 1.0 4.0 0.00 0.00 0.00 33 1020.5
20240222213525 51 261 0.0 5.0 0.00 0.00 0.00 33 1020.4
20240222213041 51 163 2.0 5.0 0.00 0.00 0.00 31 1020.5
20240222212515 51 92 1.0 3.0 0.00 0.00 0.00 33 1020.4
20240222212029 50 333 0.0 4.0 0.00 0.00 0.00 35 1020.6
20240222211524 49 85 0.0 4.0 0.00 0.00 0.00 35 1020.6
20240222211019 48 144 0.0 4.0 0.00 0.00 0.00 38 1020.7
20240222210515 48 167 0.0 3.0 0.00 0.00 0.00 38 1020.7
20240222210015 48 54 1.0 3.0 0.00 0.00 0.00 38 1020.6
20240222205530 48 145 0.0 3.0 0.00 0.00 0.00 41 1020.7
20240222205026 47 156 0.0 0.0 0.00 0.00 0.00 40 1020.6
20240222204520 47 156 0.0 2.0 0.00 0.00 0.00 42 1020.7
20240222204016 47 156 0.0 2.0 0.00 0.00 0.00 41 1020.7
20240222203552 47 135 0.0 4.0 0.00 0.00 0.00 41 1020.6
20240222203027 47 55 2.0 7.0 0.00 0.00 0.00 40 1020.6
20240222202521 47 123 2.0 7.0 0.00 0.00 0.00 40 1020.6
20240222202036 47 271 0.0 1.0 0.00 0.00 0.00 39 1020.6
20240222201514 47 124 0.0 4.0 0.00 0.00 0.00 38 1020.7
20240222201050 47 152 0.0 6.0 0.00 0.00 0.00 39 1020.6
20240222200524 47 159 1.0 4.0 0.00 0.00 0.00 41 1020.7
20240222200018 47 192 0.0 0.0 0.00 0.00 0.00 41 1020.8
20240222195532 46 307 0.0 0.0 0.00 0.00 0.00 42 1020.9
20240222195028 46 24 0.0 0.0 0.00 0.00 0.00 43 1021.0
20240222194524 46 24 0.0 0.0 0.00 0.00 0.00 43 1021.2
20240222194018 46 51 0.0 0.0 0.00 0.00 0.00 42 1021.3
20240222193517 46 51 0.0 2.0 0.00 0.00 0.00 43 1021.4
20240222193013 46 51 1.0 4.0 0.00 0.00 0.00 41 1021.5
20240222192529 48 44 2.0 4.0 0.00 0.00 0.00 41 1021.6
20240222192044 48 60 0.0 5.0 0.00 0.00 0.00 42 1021.7
20240222191518 48 197 1.0 5.0 0.00 0.00 0.00 41 1021.8
20240222191013 47 146 1.0 4.0 0.00 0.00 0.00 43 1021.8
20240222190529 46 138 1.0 4.0 0.00 0.00 0.00 45 1021.9
20240222190023 46 38 1.0 4.0 0.00 0.00 0.00 45 1022.0
20240222185517 46 45 2.0 4.0 0.00 0.00 0.00 43 1022.0
20240222185016 47 88 1.0 3.0 0.00 0.00 0.00 42 1022.0
20240222184531 47 112 0.0 5.0 0.00 0.00 0.00 43 1022.2
20240222184026 47 123 2.0 5.0 0.00 0.00 0.00 44 1022.0
20240222183521 47 126 1.0 3.0 0.00 0.00 0.00 43 1022.1
20240222183016 46 132 1.0 3.0 0.00 0.00 0.00 43 1022.2
20240222182531 46 42 0.0 7.0 0.00 0.00 0.00 44 1022.2
20240222182026 45 79 3.0 7.0 0.00 0.00 0.00 45 1022.2
20240222181525 45 31 0.0 5.0 0.00 0.00 0.00 45 1022.2
20240222181020 45 130 2.0 8.0 0.00 0.00 0.00 44 1022.4
20240222180536 45 144 2.0 6.0 0.00 0.00 0.00 46 1022.4
20240222180030 45 133 1.0 4.0 0.00 0.00 0.00 46 1022.4
20240222175525 45 105 1.0 5.0 0.00 0.00 0.00 46 1022.4
20240222175020 45 99 0.0 2.0 0.00 0.00 0.00 47 1022.3
20240222174514 45 111 0.0 6.0 0.00 0.00 0.00 47 1022.3
20240222174050 44 137 3.0 6.0 0.00 0.00 0.00 47 1022.3
20240222173525 44 168 0.0 7.0 0.00 0.00 0.00 47 1022.3
20240222173024 44 171 2.0 7.0 0.00 0.00 0.00 46 1022.3
20240222172520 44 150 0.0 7.0 0.00 0.00 0.00 47 1022.2
20240222172013 44 150 2.0 7.0 0.00 0.00 0.00 47 1022.3
20240222171529 45 238 1.0 5.0 0.00 0.00 0.00 46 1022.2
20240222171024 45 165 2.0 5.0 0.00 0.00 0.00 45 1022.2
20240222170519 45 158 1.0 4.0 0.00 0.00 0.00 46 1022.3
20240222170015 45 117 0.0 7.0 0.00 0.00 0.00 47 1022.3
20240222165513 44 131 1.0 7.0 0.00 0.00 0.00 49 1022.2
20240222165028 44 147 0.0 5.0 0.00 0.00 0.00 47 1022.2
20240222164523 44 132 0.0 3.0 0.00 0.00 0.00 49 1022.1
20240222164018 44 30 1.0 3.0 0.00 0.00 0.00 47 1022.1
20240222163514 44 145 0.0 3.0 0.00 0.00 0.00 49 1022.1
20240222163029 43 135 0.0 3.0 0.00 0.00 0.00 49 1022.2
20240222162522 42 160 0.0 7.0 0.00 0.00 0.00 49 1022.0
20240222162021 42 140 2.0 7.0 0.00 0.00 0.00 49 1022.1
20240222161515 42 215 0.0 3.0 0.00 0.00 0.00 51 1022.0
20240222161030 41 215 1.0 5.0 0.00 0.00 0.00 52 1022.0
20240222160526 41 128 1.0 5.0 0.00 0.00 0.00 54 1022.0
20240222160021 40 41 0.0 3.0 0.00 0.00 0.00 56 1022.0
20240222155516 41 44 2.0 3.0 0.00 0.00 0.00 54 1022.1
20240222155031 40 143 0.0 2.0 0.00 0.00 0.00 59 1022.0
20240222154527 39 117 0.0 2.0 0.00 0.00 0.00 61 1022.0
20240222154026 38 169 0.0 0.0 0.00 0.00 0.00 64 1022.0
20240222153541 37 169 0.0 0.0 0.00 0.00 0.00 67 1021.9
20240222153016 35 169 0.0 0.0 0.00 0.00 0.00 72 1021.9
20240222152532 34 169 0.0 0.0 0.00 0.00 0.00 75 1021.8
20240222152027 33 169 0.0 0.0 0.00 0.00 0.00 76 1021.8
20240222151543 32 169 0.0 0.0 0.00 0.00 0.00 79 1021.8
20240222151018 31 247 0.0 0.0 0.00 0.00 0.00 81 1021.7
20240222150532 30 247 0.0 0.0 0.00 0.00 0.00 82 1021.6
20240222150028 29 247 0.0 0.0 0.00 0.00 0.00 82 1021.5
20240222145527 28 247 0.0 0.0 0.00 0.00 0.00 83 1021.3
20240222145021 28 247 0.0 0.0 0.00 0.00 0.00 83 1021.2
20240222144517 27 247 0.0 0.0 0.00 0.00 0.00 83 1021.2
20240222144052 27 247 0.0 0.0 0.00 0.00 0.00 83 1021.1
20240222143526 27 247 0.0 0.0 0.00 0.00 0.00 84 1020.9
20240222143021 26 247 0.0 0.0 0.00 0.00 0.00 84 1020.9
20240222142517 26 247 0.0 0.0 0.00 0.00 0.00 84 1020.8
20240222142053 26 247 0.0 0.0 0.00 0.00 0.00 83 1020.7
20240222141531 26 247 0.0 0.0 0.00 0.00 0.00 83 1020.6
20240222141026 26 247 0.0 0.0 0.00 0.00 0.00 82 1020.6
20240222140520 26 247 0.0 0.0 0.00 0.00 0.00 82 1020.6
20240222140016 26 247 0.0 0.0 0.00 0.00 0.00 81 1020.5
20240222135531 26 247 0.0 0.0 0.00 0.00 0.00 81 1020.4
20240222135027 26 247 0.0 0.0 0.00 0.00 0.00 81 1020.4
20240222134521 26 247 0.0 0.0 0.00 0.00 0.00 81 1020.5
20240222134021 26 247 0.0 0.0 0.00 0.00 0.00 80 1020.6
20240222133517 27 247 0.0 0.0 0.00 0.00 0.00 80 1020.6
20240222133032 27 247 0.0 0.0 0.00 0.00 0.00 81 1020.6
20240222132528 27 247 0.0 0.0 0.00 0.00 0.00 81 1020.6
20240222132022 27 247 0.0 0.0 0.00 0.00 0.00 80 1020.5
20240222131518 27 247 0.0 0.0 0.00 0.00 0.00 80 1020.5
20240222131033 27 247 0.0 0.0 0.00 0.00 0.00 80 1020.6
20240222130527 27 247 0.0 0.0 0.00 0.00 0.00 79 1020.6
20240222130043 27 247 0.0 0.0 0.00 0.00 0.00 79 1020.5
20240222125521 27 247 0.0 0.0 0.00 0.00 0.00 79 1020.3
20240222125017 27 247 0.0 0.0 0.00 0.00 0.00 80 1020.4
20240222124532 27 247 0.0 0.0 0.00 0.00 0.00 79 1020.4
20240222124026 27 247 0.0 0.0 0.00 0.00 0.00 78 1020.3
20240222123542 28 244 0.0 0.0 0.00 0.00 0.00 78 1020.3
20240222123015 27 242 0.0 0.0 0.00 0.00 0.00 78 1020.3
20240222122531 28 348 0.0 0.0 0.00 0.00 0.00 78 1020.3
20240222122026 28 348 0.0 0.0 0.00 0.00 0.00 78 1020.2
20240222121524 28 301 0.0 0.0 0.00 0.00 0.00 78 1020.3
20240222121020 28 9 0.0 0.0 0.00 0.00 0.00 77 1020.3
20240222120515 28 9 0.0 0.0 0.00 0.00 0.00 77 1020.2
20240222120029 28 9 0.0 0.0 0.00 0.00 0.00 77 1020.3
20240222115525 28 9 0.0 0.0 0.00 0.00 0.00 76 1020.2
20240222115021 28 9 0.0 0.0 0.00 0.00 0.00 76 1020.2
20240222114536 28 9 0.0 0.0 0.00 0.00 0.00 76 1020.2
20240222114050 28 9 0.0 0.0 0.00 0.00 0.00 77 1020.2
20240222113526 28 9 0.0 0.0 0.00 0.00 0.00 76 1019.9
20240222113045 29 9 0.0 0.0 0.00 0.00 0.00 76 1019.9
20240222112519 29 9 0.0 0.0 0.00 0.00 0.00 76 1019.9
20240222112014 29 9 0.0 0.0 0.00 0.00 0.00 76 1019.9
20240222111529 29 9 0.0 0.0 0.00 0.00 0.00 75 1019.9
20240222111024 29 9 0.0 0.0 0.00 0.00 0.00 75 1019.9
20240222110519 30 9 0.0 0.0 0.00 0.00 0.00 75 1019.7
20240222110014 30 9 0.0 0.0 0.00 0.00 0.00 76 1019.8
20240222105529 30 9 0.0 0.0 0.00 0.00 0.00 75 1019.7
20240222105027 30 9 0.0 0.0 0.00 0.00 0.00 75 1019.6
20240222104523 30 9 0.0 0.0 0.00 0.00 0.00 75 1019.7
20240222104017 30 9 0.0 0.0 0.00 0.00 0.00 74 1019.6
20240222103513 30 9 0.0 0.0 0.00 0.00 0.00 75 1019.7
20240222103048 30 9 0.0 0.0 0.00 0.00 0.00 75 1019.7
20240222102543 30 9 0.0 0.0 0.00 0.00 0.00 74 1019.8
20240222102018 30 9 0.0 0.0 0.00 0.00 0.00 74 1019.8
20240222101554 30 9 0.0 0.0 0.00 0.00 0.00 74 1019.7
20240222101048 30 15 0.0 0.0 0.00 0.00 0.00 74 1019.8
20240222100544 30 234 0.0 0.0 0.00 0.00 0.00 75 1019.9
20240222100021 30 234 0.0 0.0 0.00 0.00 0.00 75 1019.9
20240222095516 30 234 0.0 0.0 0.00 0.00 0.00 74 1019.9
20240222095031 30 234 0.0 0.0 0.00 0.00 0.00 75 1019.9
20240222094526 30 234 0.0 0.0 0.00 0.00 0.00 74 1019.9
20240222094022 30 234 0.0 0.0 0.00 0.00 0.00 73 1019.8
20240222093517 30 234 0.0 0.0 0.00 0.00 0.00 73 1019.8
20240222093032 30 234 0.0 0.0 0.00 0.00 0.00 72 1019.9
20240222092526 30 234 0.0 0.0 0.00 0.00 0.00 71 1019.8
20240222092026 30 234 0.0 1.0 0.00 0.00 0.00 71 1019.8
20240222091541 30 234 0.0 1.0 0.00 0.00 0.00 71 1019.7
20240222091015 30 244 0.0 0.0 0.00 0.00 0.00 72 1019.8
20240222090530 30 240 0.0 0.0 0.00 0.00 0.00 71 1019.9
20240222090046 31 238 0.0 0.0 0.00 0.00 0.00 70 1019.9
20240222085520 31 238 0.0 0.0 0.00 0.00 0.00 70 1019.9
20240222085016 31 238 0.0 0.0 0.00 0.00 0.00 70 1019.8
20240222084531 31 238 0.0 0.0 0.00 0.00 0.00 69 1019.9
20240222084027 32 24 0.0 0.0 0.00 0.00 0.00 68 1019.9
20240222083526 32 24 0.0 1.0 0.00 0.00 0.00 68 1019.8
20240222083021 32 309 0.0 1.0 0.00 0.00 0.00 67 1019.7
20240222082516 32 331 0.0 0.0 0.00 0.00 0.00 67 1019.6
20240222082031 33 331 0.0 0.0 0.00 0.00 0.00 66 1019.5